Location: Chenereilles
(45.4866°N, 4.0790°E)
Time: 04:45:02
(UTC+00:00)

Cosmos 2278 - Pass Details

Date: 12 November 2019
Orbit: 838 x 854 km, 71.1° (Epoch: 13 December)

Event Time Altitude Azimuth Distance (km) Brightness Sun altitude
Rises 18:12:22 0° 180° (S) 3,385 6.9 -20.3°
Reaches altitude 10° 18:14:56 10° 172° (S) 2,457 6.1 -20.7°
Enters shadow 18:19:22 37° 124° (SE) 1,301 4.3 -21.5°
